Location: Wiesbaden
(50.0830°N, 8.2500°E)
Time: 08:39:08
(UTC+01:00)

ISS - Pass Details

Date: 12 December 2018
Orbit: 401 x 408 km, 51.6° (Epoch: 12 December)

Event Time Altitude Azimuth Distance (km) Brightness Sun altitude
Rises 17:19:13 0° 287° (WNW) 2,322 0.8 -8.3°
Reaches altitude 10° 17:21:22 10° 280° (W) 1,459 -0.1 -8.6°
Maximum altitude 17:24:27 40° 209° (SSW) 610 -2.4 -9.1°
Drops below altitude 10° 17:27:31 10° 138° (SE) 1,450 -1.2 -9.5°
Sets 17:29:39 0° 131° (SE) 2,305 -0.2 -9.8°
